This is the latest recevied weather packets stored in our database for station/object WA1OUI. If no packets are shown the sender has not sent any weather packets the latest 10 day(s).
| Time | Temp. | Humidity | Pressure | Rain* | Wind** | Luminosity | Snow |
|---|---|---|---|---|---|---|---|
| 1777930001 | 21.67° C | 31% | 1006.1 hPa | 0 mm | - | 63 W/m² | - |
| 1777929698 | 22.22° C | 28% | 1005.9 hPa | 0 mm | - | 48 W/m² | - |
| 1777929396 | 22.22° C | 28% | 1006 hPa | 0 mm | - | 59 W/m² | - |
| 1777929092 | 22.22° C | 27% | 1006 hPa | 0 mm | - | 67 W/m² | - |
| 1777928790 | 22.78° C | 28% | 1006.2 hPa | 0 mm | - | 65 W/m² | - |
| 1777928486 | 22.78° C | 27% | 1006.1 hPa | 0 mm | - | 111 W/m² | - |
| 1777928184 | 22.78° C | 27% | 1006.1 hPa | 0 mm | - | 125 W/m² | - |
| 1777927881 | 23.33° C | 27% | 1006.2 hPa | 0 mm | - | 108 W/m² | - |
| 1777927580 | 23.33° C | 28% | 1006.1 hPa | 0 mm | - | 187 W/m² | - |
| 1777927278 | 23.33° C | 27% | 1006.3 hPa | 0 mm | - | 355 W/m² | - |
| 1777926976 | 23.33° C | 27% | 1006.1 hPa | 0 mm | - | 324 W/m² | - |
| 1777926673 | 23.33° C | 26% | 1006.1 hPa | 0 mm | - | 378 W/m² | - |
| 1777926368 | 23.33° C | 26% | 1006.1 hPa | 0 mm | - | 376 W/m² | - |
| 1777926066 | 23.33° C | 25% | 1006.3 hPa | 0 mm | - | 401 W/m² | - |
| 1777925762 | 23.33° C | 27% | 1006.1 hPa | 0 mm | - | 418 W/m² | - |
| 1777925460 | 23.33° C | 28% | 1006.3 hPa | 0 mm | - | 425 W/m² | - |
| 1777925156 | 22.78° C | 27% | 1006.3 hPa | 0 mm | - | 446 W/m² | - |
| 1777924853 | 22.78° C | 27% | 1006.4 hPa | 0 mm | - | 462 W/m² | - |
| 1777924549 | 23.33° C | 28% | 1006.4 hPa | 0 mm | - | 479 W/m² | - |
| 1777924246 | 23.33° C | 27% | 1006.2 hPa | 0 mm | - | 499 W/m² | - |
| 1777923943 | 23.89° C | 27% | 1006.6 hPa | 0 mm | - | 509 W/m² | - |
| 1777923638 | 23.33° C | 27% | 1006.5 hPa | 0 mm | - | 178 W/m² | - |
| 1777923335 | 23.89° C | 28% | 1006.6 hPa | 0 mm | - | 528 W/m² | - |
| 1777923034 | 23.89° C | 26% | 1006.5 hPa | 0 mm | - | 539 W/m² | - |
| 1777922732 | 23.33° C | 26% | 1006.5 hPa | 0 mm | - | 538 W/m² | - |
* Rain latest hour (hover to see other rain measurements)
** Current wind speed in m/s (hover to see current wind gust speed)